Previsão horária em Ceccano

Hoje, 3 Agosto, Terça-feira

Tempo Temperatura Precipitação Vento Pressão Humidade
00:00 +22°C° 0 mm 1 m/s 743 mmHg 56%
01:00 +21°C° 0 mm 1 m/s 743 mmHg 57%
02:00 +21°C° 0 mm 1 m/s 743 mmHg 55%
03:00 +21°C° 0 mm 1 m/s 743 mmHg 54%
04:00 +21°C° 0 mm 1 m/s 743 mmHg 52%
05:00 +22°C° 0 mm 1 m/s 743 mmHg 49%
06:00 +23°C° 0 mm 1 m/s 743 mmHg 45%
07:00 +24°C° 0 mm 1 m/s 744 mmHg 43%
08:00 +26°C° 0 mm 1 m/s 744 mmHg 40%
09:00 +27°C° 0 mm 1 m/s 743 mmHg 37%
10:00 +29°C° 0 mm 2 m/s 743 mmHg 34%
11:00 +30°C° 0 mm 2 m/s 743 mmHg 33%
12:00 +31°C° 0 mm 2 m/s 743 mmHg 32%
13:00 +34°C° 0 mm 2 m/s 743 mmHg 31%
14:00 +32°C° 0 mm 2 m/s 743 mmHg 32%
15:00 +33°C° 0 mm 3 m/s 743 mmHg 33%
16:00 +33°C° 0 mm 3 m/s 743 mmHg 34%
17:00 +30°C° 0 mm 3 m/s 743 mmHg 40%
18:00 +28°C° 0 mm 2 m/s 743 mmHg 46%
19:00 +27°C° 0 mm 2 m/s 743 mmHg 52%
20:00 +25°C° 0 mm 2 m/s 743 mmHg 57%
21:00 +24°C° 0 mm 2 m/s 743 mmHg 61%
22:00 +23°C° 0 mm 1 m/s 743 mmHg 66%
23:00 +23°C° 0 mm 1 m/s 743 mmHg 63%

Amanhã, 4 Agosto, Quarta-feira

Tempo Temperatura Precipitação Vento Pressão Humidade
00:00 +23°C° 0 mm 1 m/s 743 mmHg 61%
01:00 +23°C° 0 mm 2 m/s 743 mmHg 58%
02:00 +23°C° 0 mm 1 m/s 742 mmHg 56%
03:00 +23°C° 0 mm 1 m/s 742 mmHg 53%
04:00 +23°C° 0 mm 1 m/s 742 mmHg 51%
05:00 +24°C° 0 mm 1 m/s 742 mmHg 46%
06:00 +26°C° 0 mm 1 m/s 742 mmHg 42%
07:00 +28°C° 0 mm 1 m/s 742 mmHg 37%
08:00 +30°C° 0 mm 1 m/s 742 mmHg 34%
09:00 +32°C° 0 mm 2 m/s 742 mmHg 30%
10:00 +35°C° 0 mm 3 m/s 742 mmHg 26%
11:00 +35°C° 0 mm 3 m/s 741 mmHg 27%
12:00 +36°C° 0 mm 3 m/s 741 mmHg 29%
13:00 +36°C° 0 mm 4 m/s 741 mmHg 30%
14:00 +36°C° 0 mm 4 m/s 741 mmHg 34%
15:00 +35°C° 0 mm 4 m/s 740 mmHg 38%
16:00 +35°C° 0 mm 4 m/s 740 mmHg 42%
17:00 +33°C° 0 mm 3 m/s 740 mmHg 51%
18:00 +30°C° 0 mm 3 m/s 740 mmHg 61%
19:00 +28°C° 0 mm 2 m/s 740 mmHg 71%
20:00 +27°C° 0 mm 2 m/s 740 mmHg 78%
21:00 +26°C° 0 mm 1 m/s 740 mmHg 85%
22:00 +25°C° 0 mm 1 m/s 741 mmHg 92%
23:00 +25°C° 0 mm 1 m/s 740 mmHg 92%

Depois de amanhã, 5 Agosto, Quinta-feira

Tempo Temperatura Precipitação Vento Pressão Humidade
00:00 +25°C° 0 mm 1 m/s 740 mmHg 92%
01:00 +25°C° 0 mm 1 m/s 740 mmHg 92%
02:00 +24°C° 0.5 mm 1 m/s 740 mmHg 93%
03:00 +24°C° 0.5 mm 1 m/s 739 mmHg 94%
04:00 +23°C° 0.5 mm 1 m/s 739 mmHg 95%
05:00 +24°C° 0.2 mm 1 m/s 739 mmHg 92%
06:00 +24°C° 0.2 mm 2 m/s 739 mmHg 88%
07:00 +25°C° 0.2 mm 2 m/s 740 mmHg 85%
08:00 +27°C° 0 mm 2 m/s 740 mmHg 72%
09:00 +28°C° 0 mm 3 m/s 740 mmHg 59%
10:00 +30°C° 0 mm 3 m/s 740 mmHg 45%
11:00 +30°C° 0 mm 4 m/s 740 mmHg 42%
12:00 +32°C° 0 mm 5 m/s 740 mmHg 38%
13:00 +33°C° 0 mm 5 m/s 739 mmHg 34%
14:00 +32°C° 0 mm 5 m/s 739 mmHg 33%
15:00 +32°C° 0 mm 5 m/s 739 mmHg 33%
16:00 +30°C° 0 mm 5 m/s 739 mmHg 32%
17:00 +28°C° 0 mm 5 m/s 739 mmHg 39%
18:00 +26°C° 0 mm 4 m/s 739 mmHg 46%
19:00 +24°C° 0 mm 3 m/s 739 mmHg 53%
20:00 +23°C° 0 mm 2 m/s 739 mmHg 61%
21:00 +21°C° 0 mm 2 m/s 739 mmHg 69%
22:00 +21°C° 0 mm 1 m/s 739 mmHg 77%
23:00 +20°C° 0 mm 1 m/s 739 mmHg 80%

6 Agosto, Sexta-feira

Tempo Temperatura Precipitação Vento Pressão Humidade
00:00 +20°C° 0 mm 1 m/s 739 mmHg 82%
01:00 +19°C° 0 mm 1 m/s 739 mmHg 84%
02:00 +19°C° 0 mm 1 m/s 739 mmHg 84%
03:00 +19°C° 0 mm 1 m/s 739 mmHg 84%
04:00 +19°C° 0 mm 1 m/s 739 mmHg 84%
05:00 +20°C° 0 mm 1 m/s 739 mmHg 78%
06:00 +21°C° 0 mm 1 m/s 739 mmHg 71%
07:00 +21°C° 0 mm 0 m/s 739 mmHg 64%
08:00 +25°C° 0 mm 1 m/s 739 mmHg 55%
09:00 +27°C° 0 mm 1 m/s 739 mmHg 47%
10:00 +29°C° 0 mm 2 m/s 739 mmHg 38%
11:00 +30°C° 0 mm 3 m/s 739 mmHg 35%
12:00 +32°C° 0 mm 4 m/s 739 mmHg 33%
13:00 +33°C° 0 mm 4 m/s 739 mmHg 30%
14:00 +33°C° 0 mm 5 m/s 738 mmHg 31%
15:00 +33°C° 0 mm 5 m/s 738 mmHg 32%
16:00 +33°C° 0 mm 5 m/s 738 mmHg 33%
17:00 +30°C° 0 mm 4 m/s 739 mmHg 40%
18:00 +28°C° 0 mm 3 m/s 739 mmHg 47%
19:00 +26°C° 0 mm 2 m/s 739 mmHg 54%
20:00 +25°C° 0 mm 2 m/s 739 mmHg 59%
21:00 +24°C° 0 mm 2 m/s 740 mmHg 63%
22:00 +22°C° 0 mm 1 m/s 740 mmHg 68%
23:00 +22°C° 0 mm 1 m/s 740 mmHg 69%

7 Agosto, Sábado

Tempo Temperatura Precipitação Vento Pressão Humidade
00:00 +22°C° 0 mm 1 m/s 740 mmHg 69%
01:00 +21°C° 0 mm 1 m/s 740 mmHg 69%
02:00 +21°C° 0 mm 1 m/s 740 mmHg 68%
03:00 +21°C° 0 mm 1 m/s 740 mmHg 67%
04:00 +21°C° 0 mm 1 m/s 740 mmHg 66%
05:00 +22°C° 0 mm 1 m/s 740 mmHg 61%
06:00 +22°C° 0 mm 0 m/s 740 mmHg 55%
07:00 +23°C° 0 mm 0 m/s 741 mmHg 50%
08:00 +28°C° 0 mm 1 m/s 741 mmHg 44%
09:00 +30°C° 0 mm 1 m/s 741 mmHg 39%
10:00 +32°C° 0 mm 2 m/s 741 mmHg 33%
11:00 +34°C° 0 mm 2 m/s 741 mmHg 32%
12:00 +35°C° 0 mm 3 m/s 741 mmHg 31%
13:00 +36°C° 0 mm 3 m/s 740 mmHg 29%
14:00 +36°C° 0 mm 4 m/s 740 mmHg 30%
15:00 +36°C° 0 mm 4 m/s 740 mmHg 31%
16:00 +36°C° 0 mm 4 m/s 740 mmHg 32%
17:00 +33°C° 0 mm 3 m/s 740 mmHg 39%
18:00 +30°C° 0 mm 2 m/s 740 mmHg 45%
19:00 +28°C° 0 mm 1 m/s 740 mmHg 52%
20:00 +27°C° 0 mm 1 m/s 741 mmHg 55%
21:00 +26°C° 0 mm 1 m/s 741 mmHg 58%
22:00 +25°C° 0 mm 1 m/s 741 mmHg 61%
23:00 +24°C° 0 mm 1 m/s 741 mmHg 61%

8 Agosto, Domingo

Tempo Temperatura Precipitação Vento Pressão Humidade
00:00 +24°C° 0 mm 1 m/s 741 mmHg 61%
01:00 +24°C° 0 mm 1 m/s 742 mmHg 61%
02:00 +24°C° 0 mm 1 m/s 742 mmHg 60%
03:00 +24°C° 0 mm 1 m/s 742 mmHg 59%
04:00 +24°C° 0 mm 1 m/s 742 mmHg 58%
05:00 +25°C° 0 mm 1 m/s 742 mmHg 53%
06:00 +27°C° 0 mm 1 m/s 742 mmHg 48%
07:00 +29°C° 0 mm 1 m/s 742 mmHg 43%
08:00 +31°C° 0 mm 2 m/s 742 mmHg 37%
09:00 +34°C° 0 mm 2 m/s 742 mmHg 32%
10:00 +37°C° 0 mm 2 m/s 743 mmHg 26%
11:00 +37°C° 0 mm 3 m/s 743 mmHg 26%
12:00 +38°C° 0 mm 3 m/s 743 mmHg 25%
13:00 +38°C° 0 mm 4 m/s 743 mmHg 24%
14:00 +38°C° 0 mm 3 m/s 743 mmHg 24%
15:00 +38°C° 0 mm 3 m/s 743 mmHg 25%
16:00 +37°C° 0 mm 2 m/s 743 mmHg 25%
17:00 +35°C° 0 mm 2 m/s 743 mmHg 29%
18:00 +32°C° 0 mm 2 m/s 743 mmHg 34%
19:00 +30°C° 0 mm 1 m/s 743 mmHg 38%
20:00 +29°C° 0 mm 1 m/s 743 mmHg 40%
21:00 +28°C° 0 mm 1 m/s 744 mmHg 41%
22:00 +27°C° 0 mm 1 m/s 744 mmHg 43%
23:00 +27°C° 0 mm 1 m/s 744 mmHg 43%
Mostrar mais

Necessitamos do seu Consentimento

A Meteoprog e os seus Fornecedores de Serviços podem armazenar e aceder a dados pessoais como cookies, identificadores do dispositivo ou outras tecnologias semelhantes existentes no seu dispositivo e processar estes dados para personalizar conteúdos e anúncios, assim como funcionalidades nas redes sociais e análise de tráfego.

  • Armazenar e/ou aceder a informações no seu dispositivo

    Os cookies, identificadores do dispositivo ou outras informações podem ser armazenados ou acedidos no seu dispositivo, para os fins acima indicados.

  • Anúncios e conteúdos personalizados, medição de anúncios e conteúdos, dados sobre o público-alvo e desenvolvimento de produtos

    Os anúncios e os conteúdos podem ser personalizados com base num perfil. Podem ser adicionados dados adicionais para uma maior personalização dos anúncios e dos conteúdos. A eficácia dos anúncios e dos conteúdos pode ser medida. Podem ser obtidas informações sobre o público que visualizou os anúncios e os conteúdos. Estes dados podem ser usados para desenvolver ou melhorar sistemas, softwares ou a experiência do utilizador.

Ao clicar em "Eu concordo”, permitirá o uso de cookies, identificadores do dispositivo e web beacons mencionados ou outras tecnologias semelhantes. As configurações do navegador do seu dispositivo podem ser alteradas.

Para certos fins, podem ser invocados interesses legítimos ao invés de consentimento. Pode ler mais informação sobre este assunto na nossa Política de Privacidade e Cookies.